Darstellungsparameter: Aktuell verwendete Einstellungen:
Skalierung der Graphiken ... ?
xyx+y,   Skalierungsfaktor:      Skalierung: Modus: x, Faktor: 1
Darstellungszeitraum ... ?
Vom - - bis: - -   Zeitraum: 14.08.2018 - 15.08.2018
Min/Max/Avg-Anzeige ... ?
Zeige MMA aktuell
Zeige MMA Monat
Zeige MMA alles
Zeige --A aktuell
Zeige --A Monat
Zeige --A alles
Keine MMA-Anzeige
MMA:
Keine MMA-Graphiken
MMA-Basis: 14.08.2018 - 15.08.2018
Quicknavigation für Darstellung... ?
Tage:      1T, 2T, 3T, 5T -1T -2T -3T -5T +1T +2T +3T +5T
Wochen: 1W, 2W, 3W -1W -2W -3W +1W +2W +3W
Monate: 1M, 3M, 6M -1M -3M -6M +1M +3M +6M
Jahre:    1J, 3J, 5J, 10J -1J -3J -5J -10J +1J +3J +5J +10J
Nutze für die Darstellung ... ?
Originaldaten oder Mittelwerte auf ...
Stundenbasis Tagesbasis Wochenbasis
Monatsbasis Jahresbasis      Datenbasis: Original-Daten
Darstellen als:
Statistik (Auto) Statistik J:M      Darstellung:
Zur Graphik,    zurück zur Übersicht aller Sensoren.
 
Tabellarische Datenbersicht: ?
 
Sensor: Nr:Datum:Temp:Feuchte:Taupunkt:
Aussen-T/F 1 14-08-2018 00:00:00 15.8 C 92 % 14.5 C
2 14-08-2018 00:05:00 15.8 C 93 % 14.67 C
3 14-08-2018 00:10:00 15.8 C 93 % 14.67 C
4 14-08-2018 00:15:00 15.8 C 93 % 14.67 C
5 14-08-2018 00:20:00 15.9 C 93 % 14.77 C
6 14-08-2018 00:25:00 15.9 C 93 % 14.77 C
7 14-08-2018 00:30:00 15.9 C 93 % 14.77 C
8 14-08-2018 00:35:00 15.9 C 93 % 14.77 C
9 14-08-2018 00:40:00 15.9 C 93 % 14.77 C
10 14-08-2018 00:45:00 16 C 93 % 14.87 C
11 14-08-2018 00:50:00 16 C 93 % 14.87 C
12 14-08-2018 00:55:00 16 C 93 % 14.87 C
13 14-08-2018 01:00:00 15.9 C 93 % 14.77 C
14 14-08-2018 01:05:00 15.9 C 93 % 14.77 C
15 14-08-2018 01:10:00 15.9 C 93 % 14.77 C
16 14-08-2018 01:15:00 15.9 C 93 % 14.77 C
17 14-08-2018 01:20:00 16 C 94 % 15.03 C
18 14-08-2018 01:25:00 16.1 C 94 % 15.13 C
19 14-08-2018 01:30:00 16.1 C 94 % 15.13 C
20 14-08-2018 01:35:00 16.2 C 94 % 15.23 C
21 14-08-2018 01:40:00 16.2 C 94 % 15.23 C
22 14-08-2018 01:45:00 16.2 C 94 % 15.23 C
23 14-08-2018 01:50:00 16.3 C 94 % 15.33 C
24 14-08-2018 01:55:00 16.3 C 94 % 15.33 C
25 14-08-2018 02:00:00 16.3 C 94 % 15.33 C
Sensor: Nr:Datum:Temp:Feuchte:Taupunkt:
Aussen-T/F 26 14-08-2018 02:05:00 16.3 C 94 % 15.33 C
27 14-08-2018 02:10:00 16.3 C 94 % 15.33 C
28 14-08-2018 02:15:00 16.3 C 93 % 15.17 C
29 14-08-2018 02:20:00 16.3 C 93 % 15.17 C
30 14-08-2018 02:25:00 16.2 C 93 % 15.07 C
31 14-08-2018 02:30:00 16.2 C 93 % 15.07 C
32 14-08-2018 02:35:00 16.1 C 93 % 14.97 C
33 14-08-2018 02:40:00 16.1 C 93 % 14.97 C
34 14-08-2018 02:45:00 16 C 93 % 14.87 C
35 14-08-2018 02:50:00 16 C 93 % 14.87 C
36 14-08-2018 02:55:00 16.1 C 93 % 14.97 C
37 14-08-2018 03:00:00 16.1 C 93 % 14.97 C
38 14-08-2018 03:05:00 16.1 C 93 % 14.97 C
39 14-08-2018 03:10:00 16.1 C 93 % 14.97 C
40 14-08-2018 03:15:00 16.1 C 93 % 14.97 C
41 14-08-2018 03:20:00 16.2 C 93 % 15.07 C
42 14-08-2018 03:25:00 16.2 C 93 % 15.07 C
43 14-08-2018 03:30:00 16.2 C 93 % 15.07 C
44 14-08-2018 03:35:00 16.2 C 93 % 15.07 C
45 14-08-2018 03:40:00 16.2 C 93 % 15.07 C
46 14-08-2018 03:45:00 16.3 C 93 % 15.17 C
47 14-08-2018 03:50:00 16.3 C 93 % 15.17 C
48 14-08-2018 03:55:00 16.3 C 93 % 15.17 C
49 14-08-2018 04:00:00 16.3 C 93 % 15.17 C
50 14-08-2018 04:05:00 16.3 C 93 % 15.17 C
Sensor: Nr:Datum:Temp:Feuchte:Taupunkt:
Aussen-T/F 51 14-08-2018 04:10:00 16.2 C 93 % 15.07 C
52 14-08-2018 04:15:00 16.2 C 93 % 15.07 C
53 14-08-2018 04:20:00 16.2 C 93 % 15.07 C
54 14-08-2018 04:25:00 16.2 C 93 % 15.07 C
55 14-08-2018 04:30:00 16.2 C 93 % 15.07 C
56 14-08-2018 04:35:00 16.2 C 93 % 15.07 C
57 14-08-2018 04:40:00 16.1 C 92 % 14.8 C
58 14-08-2018 04:45:00 16.1 C 92 % 14.8 C
59 14-08-2018 04:50:00 16.1 C 92 % 14.8 C
60 14-08-2018 04:55:00 16.1 C 92 % 14.8 C
61 14-08-2018 05:00:00 16.1 C 92 % 14.8 C
62 14-08-2018 05:05:00 16.1 C 92 % 14.8 C
63 14-08-2018 05:10:00 16.1 C 92 % 14.8 C
64 14-08-2018 05:15:00 16 C 92 % 14.7 C
65 14-08-2018 05:20:00 15.9 C 92 % 14.6 C
66 14-08-2018 05:25:00 15.9 C 91 % 14.43 C
67 14-08-2018 05:30:00 15.9 C 91 % 14.43 C
68 14-08-2018 05:35:00 15.9 C 91 % 14.43 C
69 14-08-2018 05:40:00 15.9 C 91 % 14.43 C
70 14-08-2018 05:45:00 16 C 91 % 14.53 C
71 14-08-2018 05:50:00 16.1 C 91 % 14.63 C
72 14-08-2018 05:55:00 16.1 C 91 % 14.63 C
73 14-08-2018 06:00:00 16.2 C 90 % 14.56 C
74 14-08-2018 06:05:00 16.2 C 90 % 14.56 C
75 14-08-2018 06:10:00 16.3 C 90 % 14.66 C
Sensor: Nr:Datum:Temp:Feuchte:Taupunkt:
Aussen-T/F 76 14-08-2018 06:15:00 16.3 C 89 % 14.48 C
77 14-08-2018 06:20:00 16.4 C 89 % 14.58 C
78 14-08-2018 06:25:00 16.4 C 89 % 14.58 C
79 14-08-2018 06:30:00 16.4 C 89 % 14.58 C
80 14-08-2018 06:35:00 16.5 C 89 % 14.68 C
81 14-08-2018 06:40:00 16.6 C 88 % 14.6 C
82 14-08-2018 06:45:00 16.6 C 88 % 14.6 C
83 14-08-2018 06:50:00 16.7 C 88 % 14.7 C
84 14-08-2018 06:55:00 16.7 C 88 % 14.7 C
85 14-08-2018 07:00:00 16.7 C 88 % 14.7 C
86 14-08-2018 07:05:00 16.8 C 88 % 14.8 C
87 14-08-2018 07:10:00 16.8 C 88 % 14.8 C
88 14-08-2018 07:15:00 16.8 C 88 % 14.8 C
89 14-08-2018 07:20:00 16.8 C 88 % 14.8 C
90 14-08-2018 07:25:00 16.9 C 88 % 14.9 C
91 14-08-2018 07:30:00 16.9 C 88 % 14.9 C
92 14-08-2018 07:35:00 17 C 88 % 15 C
93 14-08-2018 07:40:00 16.9 C 88 % 14.9 C
94 14-08-2018 07:45:00 16.9 C 87 % 14.72 C
95 14-08-2018 07:50:00 17 C 87 % 14.82 C
96 14-08-2018 07:55:00 17.1 C 87 % 14.92 C
97 14-08-2018 08:00:00 17.2 C 87 % 15.02 C
98 14-08-2018 08:05:00 17.3 C 86 % 14.94 C
99 14-08-2018 08:10:00 17.5 C 86 % 15.13 C
100 14-08-2018 08:15:00 17.6 C 85 % 15.05 C
Sensor: Nr:Datum:Temp:Feuchte:Taupunkt:
Aussen-T/F 101 14-08-2018 08:20:00 17.7 C 85 % 15.15 C
102 14-08-2018 08:25:00 17.8 C 85 % 15.25 C
103 14-08-2018 08:30:00 17.8 C 85 % 15.25 C
104 14-08-2018 08:35:00 17.8 C 85 % 15.25 C
105 14-08-2018 08:40:00 17.9 C 85 % 15.34 C
106 14-08-2018 08:45:00 17.9 C 84 % 15.16 C
107 14-08-2018 08:50:00 17.9 C 84 % 15.16 C
108 14-08-2018 08:55:00 18 C 84 % 15.26 C
109 14-08-2018 09:00:00 18.1 C 83 % 15.17 C
110 14-08-2018 09:05:00 18.1 C 83 % 15.17 C
111 14-08-2018 09:10:00 18.2 C 83 % 15.27 C
112 14-08-2018 09:15:00 18.2 C 83 % 15.27 C
113 14-08-2018 09:20:00 18.3 C 83 % 15.36 C
114 14-08-2018 09:25:00 18.4 C 83 % 15.46 C
115 14-08-2018 09:30:00 18.5 C 82 % 15.37 C
116 14-08-2018 09:35:00 18.6 C 82 % 15.47 C
117 14-08-2018 09:40:00 18.8 C 83 % 15.85 C
118 14-08-2018 09:45:00 18.8 C 82 % 15.66 C
119 14-08-2018 09:50:00 18.8 C 82 % 15.66 C
120 14-08-2018 09:55:00 18.9 C 82 % 15.76 C
121 14-08-2018 10:00:00 18.9 C 81 % 15.57 C
122 14-08-2018 10:05:00 18.9 C 82 % 15.76 C
123 14-08-2018 10:10:00 18.9 C 81 % 15.57 C
124 14-08-2018 10:15:00 18.8 C 81 % 15.47 C
125 14-08-2018 10:20:00 18.8 C 82 % 15.66 C
Sensor: Nr:Datum:Temp:Feuchte:Taupunkt:
Aussen-T/F 126 14-08-2018 10:25:00 18.8 C 82 % 15.66 C
127 14-08-2018 10:30:00 18.7 C 82 % 15.57 C
128 14-08-2018 10:35:00 18.7 C 82 % 15.57 C
129 14-08-2018 10:40:00 18.8 C 82 % 15.66 C
130 14-08-2018 10:45:00 18.8 C 83 % 15.85 C
131 14-08-2018 10:50:00 18.9 C 82 % 15.76 C
132 14-08-2018 10:55:00 19.2 C 82 % 16.05 C
133 14-08-2018 11:00:00 19.4 C 81 % 16.06 C
134 14-08-2018 11:05:00 19.6 C 81 % 16.25 C
135 14-08-2018 11:10:00 19.8 C 80 % 16.25 C
136 14-08-2018 11:15:00 19.9 C 81 % 16.54 C
137 14-08-2018 11:20:00 20.1 C 80 % 16.54 C
138 14-08-2018 11:25:00 20.1 C 79 % 16.34 C
139 14-08-2018 11:30:00 20 C 79 % 16.25 C
140 14-08-2018 11:35:00 20 C 80 % 16.44 C
141 14-08-2018 11:40:00 20.1 C 80 % 16.54 C
142 14-08-2018 11:45:00 20.2 C 79 % 16.44 C
143 14-08-2018 11:50:00 20.2 C 79 % 16.44 C
144 14-08-2018 11:55:00 20.2 C 80 % 16.64 C
145 14-08-2018 12:00:00 20.3 C 79 % 16.54 C
146 14-08-2018 12:05:00 20.3 C 79 % 16.54 C
147 14-08-2018 12:10:00 20.3 C 80 % 16.74 C
148 14-08-2018 12:15:00 20.4 C 79 % 16.64 C
149 14-08-2018 12:20:00 20.7 C 78 % 16.73 C
150 14-08-2018 12:25:00 20.8 C 77 % 16.62 C
Sensor: Nr:Datum:Temp:Feuchte:Taupunkt:
Aussen-T/F 151 14-08-2018 12:30:00 21 C 77 % 16.81 C
152 14-08-2018 12:35:00 21.1 C 77 % 16.91 C
153 14-08-2018 12:40:00 21.1 C 76 % 16.7 C
154 14-08-2018 12:45:00 20.8 C 76 % 16.41 C
155 14-08-2018 12:50:00 20.7 C 77 % 16.52 C
156 14-08-2018 12:55:00 20.6 C 78 % 16.63 C
157 14-08-2018 13:00:00 20.5 C 79 % 16.73 C
158 14-08-2018 13:05:00 20.4 C 81 % 17.03 C
159 14-08-2018 13:10:00 20.4 C 81 % 17.03 C
160 14-08-2018 13:15:00 20.6 C 81 % 17.22 C
161 14-08-2018 13:20:00 20.9 C 79 % 17.12 C
162 14-08-2018 13:25:00 21.3 C 77 % 17.1 C
163 14-08-2018 13:30:00 21.6 C 75 % 16.98 C
164 14-08-2018 13:35:00 21.8 C 74 % 16.96 C
165 14-08-2018 13:40:00 21.7 C 75 % 17.07 C
166 14-08-2018 13:45:00 21.8 C 74 % 16.96 C
167 14-08-2018 13:50:00 21.8 C 73 % 16.75 C
168 14-08-2018 13:55:00 21.8 C 73 % 16.75 C
169 14-08-2018 14:00:00 21.7 C 73 % 16.65 C
170 14-08-2018 14:05:00 21.5 C 75 % 16.88 C
171 14-08-2018 14:10:00 21.4 C 75 % 16.79 C
172 14-08-2018 14:15:00 21.3 C 75 % 16.69 C
173 14-08-2018 14:20:00 21.3 C 76 % 16.9 C
174 14-08-2018 14:25:00 21.3 C 76 % 16.9 C
175 14-08-2018 14:30:00 21.3 C 75 % 16.69 C
Sensor: Nr:Datum:Temp:Feuchte:Taupunkt:
Aussen-T/F 176 14-08-2018 14:35:00 21.3 C 73 % 16.26 C
177 14-08-2018 14:40:00 21.3 C 75 % 16.69 C
178 14-08-2018 14:45:00 21.5 C 75 % 16.88 C
179 14-08-2018 14:50:00 21.6 C 74 % 16.77 C
180 14-08-2018 14:55:00 21.7 C 75 % 17.07 C
181 14-08-2018 15:00:00 21.7 C 77 % 17.49 C
182 14-08-2018 15:05:00 21.7 C 77 % 17.49 C
183 14-08-2018 15:10:00 21.6 C 75 % 16.98 C
184 14-08-2018 15:15:00 21.6 C 76 % 17.19 C
185 14-08-2018 15:20:00 21.7 C 75 % 17.07 C
186 14-08-2018 15:25:00 21.8 C 73 % 16.75 C
187 14-08-2018 15:30:00 21.9 C 73 % 16.84 C
188 14-08-2018 15:35:00 22 C 74 % 17.15 C
189 14-08-2018 15:40:00 22.1 C 73 % 17.03 C
190 14-08-2018 15:45:00 22.3 C 70 % 16.56 C
191 14-08-2018 15:50:00 22.5 C 67 % 16.07 C
192 14-08-2018 15:55:00 22.6 C 66 % 15.93 C
193 14-08-2018 16:00:00 22.7 C 66 % 16.02 C
194 14-08-2018 16:05:00 22.7 C 67 % 16.26 C
195 14-08-2018 16:10:00 22.7 C 64 % 15.54 C
196 14-08-2018 16:15:00 22.8 C 66 % 16.12 C
197 14-08-2018 16:20:00 23.1 C 65 % 16.16 C
198 14-08-2018 16:25:00 23.3 C 64 % 16.11 C
199 14-08-2018 16:30:00 23.3 C 64 % 16.11 C
200 14-08-2018 16:35:00 23.3 C 64 % 16.11 C
Sensor: Nr:Datum:Temp:Feuchte:Taupunkt:
Aussen-T/F 201 14-08-2018 16:40:00 23.4 C 62 % 15.71 C
202 14-08-2018 16:45:00 23.4 C 66 % 16.69 C
203 14-08-2018 16:50:00 23.3 C 65 % 16.35 C
204 14-08-2018 16:55:00 23.2 C 64 % 16.01 C
205 14-08-2018 17:00:00 23.1 C 65 % 16.16 C
206 14-08-2018 17:05:00 23.1 C 65 % 16.16 C
207 14-08-2018 17:10:00 23.1 C 65 % 16.16 C
208 14-08-2018 17:15:00 23.2 C 65 % 16.26 C
209 14-08-2018 17:20:00 23.2 C 66 % 16.5 C
210 14-08-2018 17:25:00 23.2 C 70 % 17.42 C
211 14-08-2018 17:30:00 23.1 C 67 % 16.64 C
212 14-08-2018 17:35:00 22.9 C 69 % 16.91 C
213 14-08-2018 17:40:00 22.8 C 69 % 16.82 C
214 14-08-2018 17:45:00 22.7 C 71 % 17.17 C
215 14-08-2018 17:50:00 22.6 C 67 % 16.16 C
216 14-08-2018 17:55:00 22.6 C 67 % 16.16 C
217 14-08-2018 18:00:00 22.6 C 67 % 16.16 C
218 14-08-2018 18:05:00 22.6 C 68 % 16.39 C
219 14-08-2018 18:10:00 22.3 C 71 % 16.79 C
220 14-08-2018 18:15:00 21.9 C 75 % 17.27 C
221 14-08-2018 18:20:00 21.4 C 79 % 17.61 C
222 14-08-2018 18:25:00 20.9 C 82 % 17.71 C
223 14-08-2018 18:30:00 20.6 C 83 % 17.61 C
224 14-08-2018 18:35:00 20.1 C 83 % 17.12 C
225 14-08-2018 18:40:00 19.7 C 84 % 16.92 C
Sensor: Nr:Datum:Temp:Feuchte:Taupunkt:
Aussen-T/F 226 14-08-2018 18:45:00 19.4 C 85 % 16.81 C
227 14-08-2018 18:50:00 19.2 C 85 % 16.62 C
228 14-08-2018 18:55:00 19.1 C 86 % 16.7 C
229 14-08-2018 19:00:00 18.9 C 87 % 16.69 C
230 14-08-2018 19:05:00 18.8 C 88 % 16.77 C
231 14-08-2018 19:10:00 18.7 C 88 % 16.67 C
232 14-08-2018 19:15:00 18.7 C 88 % 16.67 C
233 14-08-2018 19:20:00 18.6 C 89 % 16.75 C
234 14-08-2018 19:25:00 18.4 C 89 % 16.55 C
235 14-08-2018 19:30:00 18.4 C 89 % 16.55 C
236 14-08-2018 19:35:00 18.3 C 89 % 16.46 C
237 14-08-2018 19:40:00 18.3 C 90 % 16.63 C
238 14-08-2018 19:45:00 18.2 C 90 % 16.53 C
239 14-08-2018 19:50:00 18.2 C 90 % 16.53 C
240 14-08-2018 19:55:00 18.2 C 90 % 16.53 C
241 14-08-2018 20:00:00 18.1 C 90 % 16.43 C
242 14-08-2018 20:05:00 18.1 C 90 % 16.43 C
243 14-08-2018 20:10:00 18 C 90 % 16.34 C
244 14-08-2018 20:15:00 18.1 C 91 % 16.61 C
245 14-08-2018 20:20:00 18.1 C 91 % 16.61 C
246 14-08-2018 20:25:00 18.2 C 91 % 16.71 C
247 14-08-2018 20:30:00 18.1 C 90 % 16.43 C
248 14-08-2018 20:35:00 18.1 C 90 % 16.43 C
249 14-08-2018 20:40:00 18 C 90 % 16.34 C
250 14-08-2018 20:45:00 17.9 C 90 % 16.24 C
Sensor: Nr:Datum:Temp:Feuchte:Taupunkt:
Aussen-T/F 251 14-08-2018 20:50:00 17.8 C 90 % 16.14 C
252 14-08-2018 20:55:00 17.7 C 90 % 16.04 C
253 14-08-2018 21:00:00 17.6 C 90 % 15.94 C
254 14-08-2018 21:05:00 17.6 C 90 % 15.94 C
255 14-08-2018 21:10:00 17.5 C 91 % 16.01 C
256 14-08-2018 21:15:00 17.4 C 91 % 15.92 C
257 14-08-2018 21:20:00 17.3 C 91 % 15.82 C
258 14-08-2018 21:25:00 17.3 C 91 % 15.82 C
259 14-08-2018 21:30:00 17.2 C 91 % 15.72 C
260 14-08-2018 21:35:00 17.1 C 91 % 15.62 C
261 14-08-2018 21:40:00 17.1 C 91 % 15.62 C
262 14-08-2018 21:45:00 17 C 91 % 15.52 C
263 14-08-2018 21:50:00 16.9 C 91 % 15.42 C
264 14-08-2018 21:55:00 16.9 C 91 % 15.42 C
265 14-08-2018 22:00:00 16.9 C 92 % 15.59 C
266 14-08-2018 22:05:00 16.9 C 92 % 15.59 C
267 14-08-2018 22:10:00 16.9 C 92 % 15.59 C
268 14-08-2018 22:15:00 16.9 C 92 % 15.59 C
269 14-08-2018 22:20:00 16.9 C 92 % 15.59 C
270 14-08-2018 22:25:00 16.9 C 92 % 15.59 C
271 14-08-2018 22:30:00 16.9 C 93 % 15.76 C
272 14-08-2018 22:35:00 17 C 93 % 15.86 C
273 14-08-2018 22:40:00 17 C 93 % 15.86 C
274 14-08-2018 22:45:00 17.1 C 93 % 15.96 C
275 14-08-2018 22:50:00 17.1 C 93 % 15.96 C
Sensor: Nr:Datum:Temp:Feuchte:Taupunkt:
Aussen-T/F 276 14-08-2018 22:55:00 17.1 C 93 % 15.96 C
277 14-08-2018 23:00:00 17.1 C 93 % 15.96 C
278 14-08-2018 23:05:00 17.2 C 93 % 16.06 C
279 14-08-2018 23:10:00 17.2 C 93 % 16.06 C
280 14-08-2018 23:15:00 17.2 C 93 % 16.06 C
281 14-08-2018 23:20:00 17.2 C 93 % 16.06 C
282 14-08-2018 23:25:00 17.2 C 93 % 16.06 C
283 14-08-2018 23:30:00 17.2 C 93 % 16.06 C
284 14-08-2018 23:35:00 17.3 C 93 % 16.16 C
285 14-08-2018 23:40:00 17.3 C 93 % 16.16 C
286 14-08-2018 23:45:00 17.3 C 93 % 16.16 C
287 14-08-2018 23:50:00 17.3 C 93 % 16.16 C
288 14-08-2018 23:55:00 17.3 C 93 % 16.16 C
289 15-08-2018 00:00:00 17.3 C 93 % 16.16 C
290 15-08-2018 00:05:00 17.2 C 93 % 16.06 C
291 15-08-2018 00:10:00 17.1 C 93 % 15.96 C
292 15-08-2018 00:15:00 17.1 C 93 % 15.96 C
293 15-08-2018 00:20:00 17 C 93 % 15.86 C
294 15-08-2018 00:25:00 16.9 C 93 % 15.76 C
295 15-08-2018 00:30:00 16.8 C 92 % 15.49 C
296 15-08-2018 00:35:00 16.7 C 92 % 15.39 C
297 15-08-2018 00:40:00 16.6 C 93 % 15.46 C
298 15-08-2018 00:45:00 16.6 C 93 % 15.46 C
299 15-08-2018 00:50:00 16.5 C 93 % 15.36 C
300 15-08-2018 00:55:00 16.5 C 93 % 15.36 C
Sensor: Nr:Datum:Temp:Feuchte:Taupunkt:
Aussen-T/F 301 15-08-2018 01:00:00 16.4 C 93 % 15.27 C
302 15-08-2018 01:05:00 16.4 C 93 % 15.27 C
303 15-08-2018 01:10:00 16.4 C 93 % 15.27 C
304 15-08-2018 01:15:00 16.4 C 93 % 15.27 C
305 15-08-2018 01:20:00 16.5 C 93 % 15.36 C
306 15-08-2018 01:25:00 16.6 C 93 % 15.46 C
307 15-08-2018 01:30:00 16.6 C 93 % 15.46 C
308 15-08-2018 01:35:00 16.5 C 93 % 15.36 C
309 15-08-2018 01:40:00 16.4 C 93 % 15.27 C
310 15-08-2018 01:45:00 16.3 C 93 % 15.17 C
311 15-08-2018 01:50:00 16.3 C 93 % 15.17 C
312 15-08-2018 01:55:00 16.2 C 93 % 15.07 C
313 15-08-2018 02:00:00 16.1 C 93 % 14.97 C
314 15-08-2018 02:05:00 16 C 93 % 14.87 C
315 15-08-2018 02:10:00 15.9 C 93 % 14.77 C
316 15-08-2018 02:15:00 15.9 C 93 % 14.77 C
317 15-08-2018 02:20:00 15.9 C 93 % 14.77 C
318 15-08-2018 02:25:00 15.9 C 94 % 14.94 C
319 15-08-2018 02:30:00 16 C 94 % 15.03 C
320 15-08-2018 02:35:00 16.1 C 94 % 15.13 C
321 15-08-2018 02:40:00 16.2 C 94 % 15.23 C
322 15-08-2018 02:45:00 16.2 C 94 % 15.23 C
323 15-08-2018 02:50:00 16.2 C 94 % 15.23 C
324 15-08-2018 02:55:00 16.2 C 94 % 15.23 C
325 15-08-2018 03:00:00 16.3 C 94 % 15.33 C
Sensor: Nr:Datum:Temp:Feuchte:Taupunkt:
Aussen-T/F 326 15-08-2018 03:05:00 16.3 C 94 % 15.33 C
327 15-08-2018 03:10:00 16.4 C 94 % 15.43 C
328 15-08-2018 03:15:00 16.3 C 94 % 15.33 C
329 15-08-2018 03:20:00 16.2 C 93 % 15.07 C
330 15-08-2018 03:25:00 16.1 C 93 % 14.97 C
331 15-08-2018 03:30:00 15.9 C 93 % 14.77 C
332 15-08-2018 03:35:00 15.7 C 93 % 14.57 C
333 15-08-2018 03:40:00 15.7 C 93 % 14.57 C
334 15-08-2018 03:45:00 15.7 C 94 % 14.74 C
335 15-08-2018 03:50:00 15.7 C 94 % 14.74 C
336 15-08-2018 03:55:00 15.6 C 94 % 14.64 C
337 15-08-2018 04:00:00 15.6 C 94 % 14.64 C
338 15-08-2018 04:05:00 15.6 C 94 % 14.64 C
339 15-08-2018 04:10:00 15.6 C 94 % 14.64 C
340 15-08-2018 04:15:00 15.6 C 94 % 14.64 C
341 15-08-2018 04:20:00 15.7 C 94 % 14.74 C
342 15-08-2018 04:25:00 15.7 C 94 % 14.74 C
343 15-08-2018 04:30:00 15.8 C 94 % 14.84 C
344 15-08-2018 04:35:00 15.9 C 94 % 14.94 C
345 15-08-2018 04:40:00 15.9 C 94 % 14.94 C
346 15-08-2018 04:45:00 16 C 94 % 15.03 C
347 15-08-2018 04:50:00 16.1 C 94 % 15.13 C
348 15-08-2018 04:55:00 16.1 C 94 % 15.13 C
349 15-08-2018 05:00:00 16.1 C 94 % 15.13 C
350 15-08-2018 05:05:00 16 C 94 % 15.03 C
Sensor: Nr:Datum:Temp:Feuchte:Taupunkt:
Aussen-T/F 351 15-08-2018 05:10:00 16 C 94 % 15.03 C
352 15-08-2018 05:15:00 15.9 C 94 % 14.94 C
353 15-08-2018 05:20:00 15.9 C 94 % 14.94 C
354 15-08-2018 05:25:00 15.9 C 94 % 14.94 C
355 15-08-2018 05:30:00 15.9 C 94 % 14.94 C
356 15-08-2018 05:35:00 16 C 94 % 15.03 C
357 15-08-2018 05:40:00 16 C 94 % 15.03 C
358 15-08-2018 05:45:00 16 C 94 % 15.03 C
359 15-08-2018 05:50:00 16.1 C 94 % 15.13 C
360 15-08-2018 05:55:00 16.1 C 94 % 15.13 C
361 15-08-2018 06:00:00 16.1 C 94 % 15.13 C
362 15-08-2018 06:05:00 16.1 C 94 % 15.13 C
363 15-08-2018 06:10:00 16.1 C 94 % 15.13 C
364 15-08-2018 06:15:00 16.1 C 94 % 15.13 C
365 15-08-2018 06:20:00 16.1 C 94 % 15.13 C
366 15-08-2018 06:25:00 16 C 94 % 15.03 C
367 15-08-2018 06:30:00 16 C 94 % 15.03 C
368 15-08-2018 06:35:00 16.1 C 94 % 15.13 C
369 15-08-2018 06:40:00 16.1 C 94 % 15.13 C
370 15-08-2018 06:45:00 16 C 94 % 15.03 C
371 15-08-2018 06:50:00 16 C 94 % 15.03 C
372 15-08-2018 06:55:00 16.1 C 94 % 15.13 C
373 15-08-2018 07:00:00 16.1 C 94 % 15.13 C
374 15-08-2018 07:05:00 16.1 C 94 % 15.13 C
375 15-08-2018 07:10:00 16.1 C 94 % 15.13 C
Sensor: Nr:Datum:Temp:Feuchte:Taupunkt:
Aussen-T/F 376 15-08-2018 07:15:00 16.1 C 94 % 15.13 C
377 15-08-2018 07:20:00 16.1 C 94 % 15.13 C
378 15-08-2018 07:25:00 16.1 C 94 % 15.13 C
379 15-08-2018 07:30:00 16.2 C 94 % 15.23 C
380 15-08-2018 07:35:00 16.2 C 94 % 15.23 C
381 15-08-2018 07:40:00 16.2 C 94 % 15.23 C
382 15-08-2018 07:45:00 16.2 C 94 % 15.23 C
383 15-08-2018 07:50:00 16.2 C 94 % 15.23 C
384 15-08-2018 07:55:00 16.2 C 94 % 15.23 C
385 15-08-2018 08:00:00 16.2 C 94 % 15.23 C
386 15-08-2018 08:05:00 16.3 C 94 % 15.33 C
387 15-08-2018 08:10:00 16.3 C 94 % 15.33 C
388 15-08-2018 08:15:00 16.4 C 94 % 15.43 C
389 15-08-2018 08:20:00 16.4 C 93 % 15.27 C
390 15-08-2018 08:25:00 16.5 C 93 % 15.36 C
391 15-08-2018 08:30:00 16.6 C 93 % 15.46 C
392 15-08-2018 08:35:00 16.6 C 93 % 15.46 C
393 15-08-2018 08:40:00 16.7 C 93 % 15.56 C
394 15-08-2018 08:45:00 16.8 C 93 % 15.66 C
395 15-08-2018 08:50:00 16.9 C 92 % 15.59 C
396 15-08-2018 08:55:00 17 C 92 % 15.69 C
397 15-08-2018 09:00:00 17.1 C 91 % 15.62 C
398 15-08-2018 09:05:00 17.2 C 91 % 15.72 C
399 15-08-2018 09:10:00 17.3 C 91 % 15.82 C
400 15-08-2018 09:15:00 17.4 C 90 % 15.74 C
Sensor: Nr:Datum:Temp:Feuchte:Taupunkt:
Aussen-T/F 401 15-08-2018 09:20:00 17.6 C 90 % 15.94 C
402 15-08-2018 09:25:00 17.7 C 90 % 16.04 C
403 15-08-2018 09:30:00 17.8 C 90 % 16.14 C
404 15-08-2018 09:35:00 17.9 C 88 % 15.88 C
405 15-08-2018 09:40:00 18.1 C 89 % 16.26 C
406 15-08-2018 09:45:00 18.2 C 88 % 16.18 C
407 15-08-2018 09:50:00 18.3 C 87 % 16.1 C
408 15-08-2018 09:55:00 18.4 C 86 % 16.02 C
409 15-08-2018 10:00:00 18.6 C 86 % 16.21 C
410 15-08-2018 10:05:00 18.7 C 84 % 15.94 C
411 15-08-2018 10:10:00 18.7 C 84 % 15.94 C
412 15-08-2018 10:15:00 18.8 C 83 % 15.85 C
413 15-08-2018 10:20:00 18.8 C 83 % 15.85 C
414 15-08-2018 10:25:00 18.8 C 83 % 15.85 C
415 15-08-2018 10:30:00 18.9 C 83 % 15.95 C
416 15-08-2018 10:35:00 19.1 C 82 % 15.96 C
417 15-08-2018 10:40:00 19.1 C 79 % 15.37 C
418 15-08-2018 10:45:00 19.3 C 79 % 15.57 C
419 15-08-2018 10:50:00 19.4 C 80 % 15.86 C
420 15-08-2018 10:55:00 19.5 C 77 % 15.36 C
421 15-08-2018 11:00:00 19.6 C 77 % 15.46 C
422 15-08-2018 11:05:00 19.5 C 76 % 15.16 C
423 15-08-2018 11:10:00 19.5 C 76 % 15.16 C
424 15-08-2018 11:15:00 19.6 C 75 % 15.05 C
425 15-08-2018 11:20:00 19.6 C 74 % 14.84 C
Sensor: Nr:Datum:Temp:Feuchte:Taupunkt:
Aussen-T/F 426 15-08-2018 11:25:00 19.6 C 74 % 14.84 C
427 15-08-2018 11:30:00 19.7 C 74 % 14.94 C
428 15-08-2018 11:35:00 19.8 C 68 % 13.73 C
429 15-08-2018 11:40:00 19.9 C 68 % 13.82 C
430 15-08-2018 11:45:00 20.1 C 69 % 14.24 C
431 15-08-2018 11:50:00 20.3 C 64 % 13.27 C
432 15-08-2018 11:55:00 20.5 C 67 % 14.16 C
433 15-08-2018 12:00:00 20.7 C 69 % 14.81 C
434 15-08-2018 12:05:00 20.8 C 67 % 14.45 C
435 15-08-2018 12:10:00 21 C 67 % 14.64 C
436 15-08-2018 12:15:00 21.2 C 68 % 15.06 C
437 15-08-2018 12:20:00 21.4 C 66 % 14.79 C
438 15-08-2018 12:25:00 21.5 C 65 % 14.65 C
439 15-08-2018 12:30:00 21.4 C 65 % 14.55 C
440 15-08-2018 12:35:00 21.6 C 66 % 14.98 C
441 15-08-2018 12:40:00 21.7 C 67 % 15.31 C
442 15-08-2018 12:45:00 21.8 C 68 % 15.63 C
443 15-08-2018 12:50:00 21.9 C 66 % 15.26 C
444 15-08-2018 12:55:00 22.1 C 66 % 15.45 C
445 15-08-2018 13:00:00 22.2 C 62 % 14.58 C
446 15-08-2018 13:05:00 22.2 C 62 % 14.58 C
447 15-08-2018 13:10:00 22.2 C 63 % 14.82 C
448 15-08-2018 13:15:00 22.3 C 64 % 15.16 C
449 15-08-2018 13:20:00 22.5 C 64 % 15.35 C
450 15-08-2018 13:25:00 22.6 C 64 % 15.45 C
Sensor: Nr:Datum:Temp:Feuchte:Taupunkt:
Aussen-T/F 451 15-08-2018 13:30:00 22.8 C 61 % 14.89 C
452 15-08-2018 13:35:00 22.8 C 61 % 14.89 C
453 15-08-2018 13:40:00 22.8 C 62 % 15.14 C
454 15-08-2018 13:45:00 22.9 C 63 % 15.48 C
455 15-08-2018 13:50:00 23.1 C 60 % 14.91 C
456 15-08-2018 13:55:00 23.1 C 59 % 14.65 C
457 15-08-2018 14:00:00 23 C 59 % 14.56 C
458 15-08-2018 14:05:00 23 C 61 % 15.08 C
459 15-08-2018 14:10:00 22.9 C 60 % 14.73 C
460 15-08-2018 14:15:00 22.9 C 60 % 14.73 C
461 15-08-2018 14:20:00 22.8 C 59 % 14.37 C
462 15-08-2018 14:25:00 22.8 C 59 % 14.37 C
463 15-08-2018 14:30:00 22.9 C 62 % 15.23 C
464 15-08-2018 14:35:00 23 C 63 % 15.58 C
465 15-08-2018 14:40:00 23.1 C 59 % 14.65 C
466 15-08-2018 14:45:00 23.2 C 59 % 14.75 C
467 15-08-2018 14:50:00 23.3 C 60 % 15.1 C
468 15-08-2018 14:55:00 23.4 C 60 % 15.19 C
469 15-08-2018 15:00:00 23.5 C 58 % 14.76 C
470 15-08-2018 15:05:00 23.4 C 57 % 14.4 C
471 15-08-2018 15:10:00 23.4 C 58 % 14.67 C
472 15-08-2018 15:15:00 23.5 C 59 % 15.03 C
473 15-08-2018 15:20:00 23.6 C 59 % 15.12 C
474 15-08-2018 15:25:00 23.7 C 57 % 14.68 C
475 15-08-2018 15:30:00 23.7 C 57 % 14.68 C
Sensor: Nr:Datum:Temp:Feuchte:Taupunkt:
Aussen-T/F 476 15-08-2018 15:35:00 23.8 C 56 % 14.5 C
477 15-08-2018 15:40:00 23.9 C 57 % 14.87 C
478 15-08-2018 15:45:00 23.9 C 56 % 14.59 C
479 15-08-2018 15:50:00 23.9 C 58 % 15.14 C
480 15-08-2018 15:55:00 24.1 C 56 % 14.78 C
481 15-08-2018 16:00:00 24.2 C 55 % 14.59 C
482 15-08-2018 16:05:00 24.2 C 56 % 14.87 C
483 15-08-2018 16:10:00 24.3 C 56 % 14.96 C
484 15-08-2018 16:15:00 24.4 C 56 % 15.06 C
485 15-08-2018 16:20:00 24.6 C 54 % 14.68 C
486 15-08-2018 16:25:00 24.6 C 55 % 14.96 C
487 15-08-2018 16:30:00 24.5 C 55 % 14.87 C
488 15-08-2018 16:35:00 24.4 C 54 % 14.49 C
489 15-08-2018 16:40:00 24.4 C 56 % 15.06 C
490 15-08-2018 16:45:00 24.3 C 55 % 14.68 C
491 15-08-2018 16:50:00 24.2 C 58 % 15.42 C
492 15-08-2018 16:55:00 24.1 C 56 % 14.78 C
493 15-08-2018 17:00:00 24.1 C 56 % 14.78 C
494 15-08-2018 17:05:00 24 C 56 % 14.68 C
495 15-08-2018 17:10:00 23.9 C 58 % 15.14 C
496 15-08-2018 17:15:00 23.8 C 57 % 14.77 C
497 15-08-2018 17:20:00 23.8 C 57 % 14.77 C
498 15-08-2018 17:25:00 23.8 C 57 % 14.77 C
499 15-08-2018 17:30:00 23.8 C 67 % 17.3 C
500 15-08-2018 17:35:00 23.9 C 69 % 17.87 C
Sensor: Nr:Datum:Temp:Feuchte:Taupunkt:
Aussen-T/F 501 15-08-2018 17:40:00 23.8 C 69 % 17.77 C
502 15-08-2018 17:45:00 23.7 C 68 % 17.44 C
503 15-08-2018 17:50:00 23.7 C 69 % 17.67 C
504 15-08-2018 17:55:00 23.5 C 64 % 16.3 C
505 15-08-2018 18:00:00 23.4 C 69 % 17.39 C
506 15-08-2018 18:05:00 23.3 C 70 % 17.52 C
507 15-08-2018 18:10:00 23.2 C 70 % 17.42 C
508 15-08-2018 18:15:00 23.1 C 70 % 17.33 C
509 15-08-2018 18:20:00 22.9 C 71 % 17.36 C
510 15-08-2018 18:25:00 22.9 C 71 % 17.36 C
511 15-08-2018 18:30:00 22.8 C 71 % 17.27 C
512 15-08-2018 18:35:00 22.7 C 71 % 17.17 C
513 15-08-2018 18:40:00 22.7 C 72 % 17.39 C
514 15-08-2018 18:45:00 22.7 C 71 % 17.17 C
515 15-08-2018 18:50:00 22.7 C 71 % 17.17 C
516 15-08-2018 18:55:00 22.7 C 72 % 17.39 C
517 15-08-2018 19:00:00 22.8 C 72 % 17.49 C
518 15-08-2018 19:05:00 22.8 C 72 % 17.49 C
519 15-08-2018 19:10:00 22.7 C 71 % 17.17 C
520 15-08-2018 19:15:00 22.7 C 72 % 17.39 C
521 15-08-2018 19:20:00 22.6 C 72 % 17.3 C
522 15-08-2018 19:25:00 22.5 C 73 % 17.42 C
523 15-08-2018 19:30:00 22.4 C 73 % 17.32 C
524 15-08-2018 19:35:00 22.3 C 74 % 17.44 C
525 15-08-2018 19:40:00 22.2 C 73 % 17.13 C
Sensor: Nr:Datum:Temp:Feuchte:Taupunkt:
Aussen-T/F 526 15-08-2018 19:45:00 22.1 C 72 % 16.82 C
527 15-08-2018 19:50:00 22 C 73 % 16.94 C
528 15-08-2018 19:55:00 21.9 C 73 % 16.84 C
529 15-08-2018 20:00:00 21.8 C 73 % 16.75 C
530 15-08-2018 20:05:00 21.6 C 73 % 16.55 C
531 15-08-2018 20:10:00 21.5 C 74 % 16.67 C
532 15-08-2018 20:15:00 21.4 C 74 % 16.57 C
533 15-08-2018 20:20:00 21.3 C 73 % 16.26 C
534 15-08-2018 20:25:00 21.2 C 74 % 16.38 C
535 15-08-2018 20:30:00 21.1 C 74 % 16.29 C
536 15-08-2018 20:35:00 21 C 74 % 16.19 C
537 15-08-2018 20:40:00 20.9 C 74 % 16.09 C
538 15-08-2018 20:45:00 20.8 C 73 % 15.78 C
539 15-08-2018 20:50:00 20.8 C 74 % 16 C
540 15-08-2018 20:55:00 20.7 C 74 % 15.9 C
541 15-08-2018 21:00:00 20.6 C 74 % 15.8 C
542 15-08-2018 21:05:00 20.5 C 74 % 15.71 C
543 15-08-2018 21:10:00 20.4 C 75 % 15.82 C
544 15-08-2018 21:15:00 20.4 C 75 % 15.82 C
545 15-08-2018 21:20:00 20.3 C 75 % 15.72 C
546 15-08-2018 21:25:00 20.2 C 76 % 15.83 C
547 15-08-2018 21:30:00 20.2 C 76 % 15.83 C
548 15-08-2018 21:35:00 20.1 C 76 % 15.74 C
549 15-08-2018 21:40:00 20.1 C 77 % 15.94 C
550 15-08-2018 21:45:00 19.9 C 77 % 15.75 C
Sensor: Nr:Datum:Temp:Feuchte:Taupunkt:
Aussen-T/F 551 15-08-2018 21:50:00 19.9 C 77 % 15.75 C
552 15-08-2018 21:55:00 19.8 C 78 % 15.85 C
553 15-08-2018 22:00:00 19.8 C 78 % 15.85 C
554 15-08-2018 22:05:00 19.7 C 77 % 15.56 C
555 15-08-2018 22:10:00 19.6 C 78 % 15.66 C
556 15-08-2018 22:15:00 19.6 C 78 % 15.66 C
557 15-08-2018 22:20:00 19.4 C 77 % 15.27 C
558 15-08-2018 22:25:00 19.3 C 78 % 15.37 C
559 15-08-2018 22:30:00 19.2 C 78 % 15.27 C
560 15-08-2018 22:35:00 19.1 C 79 % 15.37 C
561 15-08-2018 22:40:00 19 C 79 % 15.28 C
562 15-08-2018 22:45:00 18.9 C 79 % 15.18 C
563 15-08-2018 22:50:00 18.8 C 80 % 15.28 C
564 15-08-2018 22:55:00 18.6 C 80 % 15.08 C
565 15-08-2018 23:00:00 18.4 C 80 % 14.89 C
566 15-08-2018 23:05:00 18.3 C 80 % 14.79 C
567 15-08-2018 23:10:00 18.2 C 80 % 14.69 C
568 15-08-2018 23:15:00 18 C 81 % 14.69 C
569 15-08-2018 23:20:00 17.8 C 81 % 14.5 C
570 15-08-2018 23:25:00 17.7 C 81 % 14.4 C
571 15-08-2018 23:30:00 17.6 C 82 % 14.49 C
572 15-08-2018 23:35:00 17.4 C 82 % 14.3 C
573 15-08-2018 23:40:00 17.3 C 83 % 14.39 C
574 15-08-2018 23:45:00 17.3 C 83 % 14.39 C
575 15-08-2018 23:50:00 17.1 C 83 % 14.19 C
Sensor: Nr:Datum:Temp:Feuchte:Taupunkt:
Aussen-T/F 576 15-08-2018 23:55:00 17 C 84 % 14.28 C

Legende:
   Min
   Max


Maximal/Minimal-Werte vom 14.08.2018 - 15.08.2018

Sensor Min Max Avg
Temp
(Aussen-T/F)
15.6 °C
15-08-2018  03:55:00
24.6 °C
15-08-2018  16:20:00
18.96 °C
Feuchte
(Aussen-T/F)
54 %
15-08-2018  16:20:00
94 %
14-08-2018  01:20:00
81.95 %
Taupunkt
(Aussen-T/F)
13.27 C
15-08-2018  11:50:00
17.87 C
15-08-2018  17:35:00
15.58 C

Die Daten stammen von einer Davis Vantage Pro 2 Wetter-Station und werden unter Linux mit der Software wview2wettercgi und aufbereitet. Alle Angaben erfolgen ohne Gewähr für ihre Vollständigkeit oder Richtigkeit.
Kontakt: Rainer Krienke krienke@uni-koblenz.de . Meine Webseiten an der Uni Koblenz oder privat.
Version: $Revision: 0.78 $